Overview Statistics Trail Chart Weather Telemetry Raw packets
 

This is the latest recevied weather packets stored in our database for station/object DB0OHL. If no packets are shown the sender has not sent any weather packets the latest 10 day(s).

<< 28 29 30 31 32 33 34 >>
Time Temp. Humidity Pressure Rain* Wind** Luminosity Snow
1777394732 17.22° C 46% 1020.4 hPa 0 mm - - -
1777394130 17.22° C 46% 1020.5 hPa 0 mm - - -
1777393527 16.67° C 47% 1020.4 hPa 0 mm - - -
1777392924 16.67° C 46% 1020.3 hPa 0 mm - - -
1777392322 17.22° C 48% 1020.4 hPa 0 mm - - -
1777391719 17.22° C 48% 1020.4 hPa 0 mm - - -
1777391117 17.78° C 45% 1020.3 hPa 0 mm - - -
1777390574 17.78° C 47% 1020.2 hPa 0 mm - - -
1777389972 17.78° C 47% 1020.2 hPa 0 mm - - -
1777389369 17.78° C 46% 1020.2 hPa 0 mm - - -
1777388767 17.78° C 47% 1020.2 hPa 0 mm - - -
1777388164 17.78° C 47% 1020.4 hPa 0 mm - - -
1777387562 18.33° C 47% 1020.4 hPa 0 mm - - -
1777386959 18.33° C 46% 1020.4 hPa 0 mm - - -
1777386357 18.33° C 47% 1020.4 hPa 0 mm - - -
1777385754 18.33° C 47% 1020.4 hPa 0 mm - - -
1777385152 18.33° C 46% 1020.4 hPa 0 mm - - -
1777384549 18.33° C 47% 1020.3 hPa 0 mm - - -
1777383947 18.33° C 45% 1020.4 hPa 0 mm - - -
1777383344 18.89° C 48% 1020.5 hPa 0 mm - - -
1777382741 18.33° C 47% 1020.5 hPa 0 mm - - -
1777382139 18.33° C 48% 1020.5 hPa 0 mm - - -
1777381536 18.33° C 50% 1020.5 hPa 0 mm - - -
1777380934 18.33° C 52% 1020.7 hPa 0 mm - - -
1777380331 18.33° C 53% 1020.7 hPa 0 mm - - -

* Rain latest hour (hover to see other rain measurements)
** Current wind speed in m/s (hover to see current wind gust speed)